Bismarck, ND

7:18 AM CST on February 23, 2018 (GMT -0600)
Bismarck Municipal

Weather History for KBIS - May, 2014

Change the Weather History Date:

Monday, May 19, 2014

  Actual Average Record
Temperature  
Mean Temperature 64 °F 57 °F  
Max Temperature 78 °F 69 °F 96 °F (1948)
Min Temperature 50 °F 44 °F 25 °F (2015)
Degree Days  
Heating Degree Days 1 9  
Month to date heating degree days 308 223  
Since 1 July heating degree days 9034 8378  
Cooling Degree Days 0 1  
Month to date cooling degree days 0 1  
Year to date cooling degree days 0 2  
Growing Degree Days 14 (Base 50)    
Moisture  
Dew Point 49 °F    
Average Humidity 60    
Maximum Humidity 89    
Minimum Humidity 31    
Precipitation  
Precipitation 0.05 in 0.08 in 1.51 in (2013)
Month to date precipitation 0.21 1.37  
Year to date precipitation 3.55 4.44  
Snow  
Snow 0.00 in 0.00 in 0.10 in (1931)
Month to date snowfall T 0.4  
Since 1 July snowfall 40.5 51.2  
Snow Depth 0.00 in    
Sea Level Pressure  
Sea Level Pressure 29.61 in    
Wind  
Wind Speed 11 mph (NW)    
Max Wind Speed 23 mph    
Max Gust Speed 31 mph    
Visibility 10 miles    
Events Rain , Thunderstorm    
T = Trace of Precipitation, MM = Missing Value Source: NWS Daily Summary

Daily Weather History Graph

Daily Weather History Graph

Search for Another Location

Airport or City:

Trip Planner

Search our weather history database for the weather conditions in past years. The results will help you decide how hot, cold, wet, or windy it might be!

Date:

Astronomy

May. 19, 2014 Rise Set
Actual Time 6:03 AM CDT 9:15 PM CDT
Civil Twilight 5:27 AM CDT 9:52 PM CDT
Nautical Twilight 4:40 AM CDT 10:40 PM CDT
Astronomical Twilight 3:41 AM CDT 11:39 PM CDT
Moon 12:59 AM CDT (5/19) 11:09 AM CDT (5/19)
Length of Visible Light 16h 25m
Length of Day
15h 12m
Waning Gibbous, 71% of the Moon is Illuminated
May 19
Waning Gibbous
May 21
Last Quarter
May 28
New
Jun 5
First Quarter
Jun 12
Full

Hourly Weather History & Observations

Time (CDT) Temp. Dew Point Humidity Pressure Visibility Wind Dir Wind Speed Gust Speed Precip Events Conditions
12:52 AM 62.1 °F 44.1 °F 52% 29.60 in 10.0 mi SE 19.6 mph - 0.00 in   Mostly Cloudy
1:49 AM 62.6 °F 44.6 °F 52% 29.59 in 10.0 mi SE 11.5 mph - N/A Thunderstorm Overcast
1:52 AM 63.0 °F 45.0 °F 52% 29.58 in 10.0 mi SE 8.1 mph 18.4 mph 0.00 in Rain , Thunderstorm Light Rain
2:06 AM 61.0 °F 48.0 °F 62% 29.61 in 10.0 mi South 12.7 mph - 0.00 in Rain , Thunderstorm Light Thunderstorms and Rain
2:52 AM 57.9 °F 50.0 °F 75% 29.60 in 10.0 mi NNW 6.9 mph - 0.05 in Rain Light Rain
3:52 AM 55.9 °F 48.9 °F 77% 29.57 in 10.0 mi East 12.7 mph - 0.00 in   Partly Cloudy
4:52 AM 53.1 °F 48.9 °F 86% 29.54 in 10.0 mi ENE 9.2 mph - N/A   Clear
5:52 AM 52.0 °F 48.0 °F 86% 29.54 in 10.0 mi ENE 8.1 mph - N/A   Clear
6:52 AM 52.0 °F 48.9 °F 89% 29.55 in 10.0 mi ENE 4.6 mph - N/A   Clear
9:52 AM 63.0 °F 52.0 °F 67% 29.56 in 10.0 mi West 11.5 mph - N/A   Clear
10:37 AM 63.0 °F 55.0 °F 75% 29.58 in 10.0 mi West 18.4 mph - N/A   Mostly Cloudy
10:52 AM 63.0 °F 54.0 °F 72% 29.58 in 10.0 mi WNW 16.1 mph - N/A   Overcast
11:43 AM 66.9 °F 55.0 °F 66% 29.59 in 10.0 mi NW 15.0 mph - N/A   Scattered Clouds
11:52 AM 68.0 °F 55.0 °F 63% 29.57 in 10.0 mi NNW 18.4 mph 21.9 mph N/A   Scattered Clouds
12:52 PM 71.6 °F 53.6 °F 53% 29.60 in 10.0 mi NW 17.3 mph 21.9 mph N/A   Partly Cloudy
1:52 PM 72.0 °F 52.0 °F 49% 29.59 in 10.0 mi WNW 15.0 mph - N/A   Scattered Clouds
2:52 PM 72.0 °F 50.0 °F 46% 29.60 in 10.0 mi WNW 11.5 mph - N/A   Mostly Cloudy
3:52 PM 75.9 °F 48.0 °F 37% 29.60 in 10.0 mi WNW 15.0 mph 28.8 mph N/A   Mostly Cloudy
4:52 PM 75.0 °F 45.0 °F 34% 29.62 in 10.0 mi NW 17.3 mph 28.8 mph N/A   Partly Cloudy
5:52 PM 75.9 °F 42.1 °F 30% 29.62 in 10.0 mi NW 15.0 mph 27.6 mph N/A   Clear
6:52 PM 73.0 °F 44.1 °F 35% 29.64 in 10.0 mi NW 12.7 mph - N/A   Mostly Cloudy
7:52 PM 72.0 °F 45.0 °F 38% 29.65 in 10.0 mi NNW 9.2 mph - N/A   Clear
8:52 PM 68.0 °F 46.0 °F 45% 29.70 in 10.0 mi NW 12.7 mph 24.2 mph N/A   Overcast
9:52 PM 62.1 °F 48.0 °F 60% 29.73 in 10.0 mi NW 8.1 mph - N/A   Scattered Clouds
10:52 PM 60.1 °F 46.9 °F 62% 29.75 in 10.0 mi WNW 6.9 mph - N/A   Mostly Cloudy
11:52 PM 57.0 °F 48.9 °F 74% 29.77 in 10.0 mi West 10.4 mph - N/A   Partly Cloudy